This demonstration page uses our WeatherBlox Daily Observations layout. Learn more.

Left ArrowRight Arrow

39.08367, -84.50855

Hourly Observations for May 30, 2016

Temp ( °F °C ) Dew Point ( °F °C ) Humidity (%) Winds ( mph kmh ) Pressure ( in mb ) Visibility ( mi km ) Precip ( " mm )
12:03 am 00:03 Clear with Mist and Fog 66 19 66 19 100 100 Calm 30.00 1016 3 4 0.00 0.00
12:11 am 00:11 Clear with Mist and Fog 67 19.4 67 19.4 100 100 Calm 30.00 1016 3 5 0.00 0.00
12:21 am 00:21 Clear with Mist and Fog 67 19.4 67 19.4 100 100 Calm 30.00 1016 2 3 0.00 0.00
12:34 am 00:34 Clear with Mist and Fog 66 19 66 19 100 100 Calm 30.00 1016 3 5 0.00 0.00
12:43 am 00:43 Partly Cloudy with Mist and Fog 65 18.3 65 18.3 100 100 ESE 3 6 30.00 1016 2 3 0.00 0.00
12:53 am 00:53 Mostly Cloudy with Mist and Fog 65 18.3 65 18.3 100 100 Calm 30.02 1017 4 6 0.00 0.00
1:53 am 01:53 Cloudy with Mist and Fog 67 19.4 67 19.4 100 100 Calm 30.02 1017 6 10 0.00 0.00
2:53 am 02:53 Clear 66 18.9 65 18.3 96 96 Calm 30.02 1017 9 14 0.00 0.00
3:53 am 03:53 Mostly Clear 65 18.3 64 17.8 97 97 SSW 3 6 30.02 1017 10 16 0.00 0.00
4:53 am 04:53 Clear with Mist and Fog 64 17.8 64 17.8 100 100 Calm 30.02 1017 6 10 0.00 0.00
5:37 am 05:37 Clear with Mist and Fog 63 17.2 63 17.2 100 100 Calm 30.00 1016 2 2 0.00 0.00
5:46 am 05:46 Clear with Fog 63 17 63 17 100 100 Calm 30.00 1016 0 0 0.00 0.00
5:53 am 05:53 Clear with Fog 62 16.7 62 16.7 100 100 Calm 30.02 1017 0 0 0.00 0.00
6:04 am 06:04 Clear with Mist and Fog 63 17 63 17 100 100 Calm 30.00 1016 1 1 0.00 0.00
6:07 am 06:07 Clear with Mist and Fog 62 16.7 62 16.7 100 100 ESE 3 6 30.00 1016 2 3 0.00 0.00
6:15 am 06:15 Sunny with Mist and Fog 63 17.2 63 17.2 100 100 ESE 3 6 30.00 1016 3 5 0.00 0.00
6:46 am 06:46 Sunny with Mist and Fog 63 17 63 17 100 100 Calm 30.03 1017 1 2 0.00 0.00
6:53 am 06:53 Sunny 61 16.1 61 16.1 100 100 SSE 3 6 30.04 1017 7 11 0.00 0.00
7:53 am 07:53 Sunny 66 18.9 66 18.9 100 100 Calm 30.04 1017 7 11 0.00 0.00
8:53 am 08:53 Sunny 71 21.7 67 19.4 87 87 Calm 30.04 1017 10 16 0.00 0.00
9:53 am 09:53 Sunny 75 23.9 68 20 79 79 Calm 30.04 1017 10 16 0.00 0.00
10:53 am 10:53 Sunny 80 26.7 61 16.1 52 52 NNE 12 19 30.04 1017 10 16 0.00 0.00
11:53 am 11:53 Sunny 82 27.8 62 16.7 51 51 VRB 3 6 30.05 1018 10 16 0.00 0.00
12:53 pm 12:53 Mostly Sunny 83 28.3 61 16.1 48 48 N 10 17 30.03 1017 10 16 0.00 0.00
1:53 pm 13:53 Mostly Sunny 84 28.9 60 15.6 44 44 NNW 10 17 30.01 1016 10 16 0.00 0.00
2:53 pm 14:53 Partly Cloudy 84 28.9 57 13.9 40 40 VRB 3 6 30.01 1016 10 16 0.00 0.00
3:53 pm 15:53 Partly Cloudy 85 29.4 57 13.9 39 39 NNW 12 19 29.99 1016 10 16 0.00 0.00
4:53 pm 16:53 Partly Cloudy 82 27.8 58 14.4 44 44 NNE 7 11 29.98 1015 10 16 0.00 0.00
5:53 pm 17:53 Partly Cloudy 81 27.2 61 16.1 51 51 E 3 6 29.96 1015 10 16 0.00 0.00
6:53 pm 18:53 Sunny 84 28.9 57 13.9 40 40 NNE 7 11 29.95 1014 10 16 0.00 0.00
7:53 pm 19:53 Sunny 82 27.8 61 16.1 49 49 Calm 29.95 1014 10 16 0.00 0.00
8:53 pm 20:53 Sunny 71 21.7 65 18.3 81 81 S 3 6 29.96 1014 10 16 0.00 0.00
9:53 pm 21:53 Clear 68 20 62 16.7 81 81 Calm 29.96 1015 10 16 0.00 0.00
10:53 pm 22:53 Clear 66 18.9 62 16.7 87 87 Calm 29.98 1015 10 16 0.00 0.00
11:53 pm 23:53 Partly Cloudy 65 18.3 62 16.7 90 90 Calm 29.98 1015 10 16 0.00 0.00

Powered by AerisWeather